Wind_Speed
26 26 28 28 29 30 32 32 32 29 29 26 28 31 32 32 32 33 33 33 34 34 35 37 39 40 42 44 45 46 47 48 49 49 50 50 51 51 52 53 54 55 56 57
28 28 29 30 29 30 31 31 31 30 28 26 30 32 33 33 33 33 34 35 36 37 38 39 40 42 44 45 46 47 48 49 49 50 51 51 52 53 54 55 56 57 58 59
28 28 31 32 28 29 30 30 31 31 27 28 31 32 33 33 34 35 36 37 37 38 40 41 43 44 45 46 47 48 48 49 50 51 51 52 53 54 55 56 57 58 60 61
28 29 33 27 26 28 29 30 31 32 30 31 32 34 34 35 36 37 37 38 39 41 42 43 44 45 46 46 47 48 49 50 50 51 52 53 54 55 56 57 58 60 61 62
30 31 31 28 27 27 30 30 30 32 32 33 34 35 35 36 36 37 38 39 41 42 43 44 45 45 46 47 47 48 49 50 51 52 53 54 55 56 57 58 59 61 62 64
32 32 32 26 26 28 31 31 27 30 32 33 34 34 34 35 36 38 39 40 41 42 43 44 45 45 46 47 47 48 49 50 51 52 53 55 56 57 58 60 61 63 64 67
32 33 32 28 27 28 31 28 28 30 32 33 33 34 34 35 37 38 39 41 42 43 44 44 45 45 46 47 48 48 49 50 51 53 54 56 57 58 60 62 63 65 67 69
33 34 30 27 30 30 29 30 30 31 31 32 33 34 35 37 38 39 40 41 42 43 44 44 45 45 46 47 48 49 50 51 52 54 56 57 58 60 62 64 66 68 71 73
33 32 30 31 31 31 31 31 31 31 32 33 33 34 35 36 37 38 39 41 42 43 43 44 45 45 46 48 49 50 51 52 54 55 57 58 60 62 64 67 70 72 75 78
34 33 32 32 32 32 32 32 33 33 33 33 33 34 35 36 37 39 40 41 41 42 43 43 45 46 47 49 50 51 52 53 55 56 58 60 62 65 68 71 74 78 81 83
34 33 33 33 33 33 34 34 33 33 33 33 34 35 37 37 38 39 40 41 42 42 43 44 45 47 49 50 51 52 53 55 56 58 60 62 65 68 72 75 80 83 85 87
33 32 34 34 34 34 34 34 34 34 35 35 36 37 38 38 39 40 41 41 42 43 44 45 47 48 50 51 52 53 54 56 58 60 63 66 69 72 76 80 83 86 87 88
33 33 34 34 34 34 34 34 35 35 36 37 37 38 38 38 39 40 41 42 43 44 45 46 48 49 50 51 53 55 57 59 62 65 68 71 75 78 80 82 84 86 87 86
33 33 33 33 34 34 34 35 35 36 37 37 37 38 39 40 41 42 43 44 44 45 46 47 49 50 51 53 55 57 60 63 66 70 73 77 80 83 85 86 86 84 84 83
33 34 34 34 34 35 35 35 36 36 36 37 38 39 41 42 42 43 44 45 45 45 47 48 50 51 53 56 59 62 65 68 71 75 78 81 84 86 87 88 87 84 81 76
33 33 33 34 34 35 35 36 36 37 38 39 40 41 42 42 43 43 44 44 44 45 48 50 52 54 56 60 63 66 69 73 76 79 82 84 86 87 87 86 84 79 74 68
31 32 33 34 34 35 36 37 37 39 40 40 41 41 42 42 42 43 43 44 45 47 50 52 54 57 61 64 68 71 74 77 80 82 84 86 87 86 84 81 76 71 65 60
30 31 32 33 34 35 36 36 37 38 38 39 39 40 40 41 41 42 44 45 47 50 53 56 59 62 65 69 72 75 78 80 82 84 86 86 84 82 78 73 68 64 58 53
30 31 31 32 33 33 34 34 35 36 37 37 38 39 40 41 42 44 45 47 50 53 56 60 63 67 70 74 77 79 81 83 84 84 84 82 79 75 70 66 61 57 53 48
30 30 31 31 32 32 33 34 35 35 36 37 38 39 40 42 44 46 48 51 55 58 61 65 68 72 75 77 80 82 83 83 83 82 80 77 73 68 63 59 55 51 48 44
30 30 31 31 32 32 33 34 34 35 36 37 39 40 42 44 47 49 52 55 59 63 66 70 73 76 78 81 82 82 82 82 81 79 75 70 65 61 57 53 50 47 43 41
30 31 31 32 32 32 33 34 35 36 37 39 41 43 45 48 51 54 57 61 64 67 71 74 77 79 81 81 81 81 80 79 76 72 67 63 59 55 52 48 45 42 40 38
31 31 31 32 32 33 34 35 36 38 40 42 44 46 49 52 55 58 61 65 69 72 75 77 79 80 81 80 80 79 77 73 69 65 61 57 54 51 47 44 42 39 37 35
31 31 32 32 33 34 36 37 38 40 43 45 48 51 54 56 59 63 67 70 74 76 78 79 80 80 79 78 76 73 69 65 62 58 55 52 49 46 43 41 38 36 34 32
31 32 33 34 35 36 37 39 41 43 46 49 52 55 59 62 65 68 72 74 76 78 78 78 78 77 76 73 69 66 62 59 56 53 50 48 45 42 40 38 36 33 31 30
32 33 34 35 36 38 39 42 44 47 50 52 56 60 63 67 70 73 75 76 77 77 76 75 74 72 69 65 62 59 56 54 52 49 47 44 41 38 36 34 32 31 29 28
33 34 35 37 38 41 43 46 48 51 54 57 60 64 67 70 73 74 75 76 75 74 72 70 67 64 61 59 56 53 51 49 47 44 42 39 37 34 32 30 29 28 26 25
Wind_Direction
247 247 247 245 244 246 248 252 255 256 255 253 254 254 256 258 261 264 267 270 272 273 275 278 280 282 283 285 287 288 289 290 291 291 292 292 292 293 293 293 294 294 294 295
246 247 248 248 246 248 250 253 255 255 254 253 253 256 259 262 265 268 270 272 274 276 278 280 282 283 285 286 288 289 290 290 291 291 292 292 293 293 294 294 295 295 296 297
246 247 250 250 251 251 253 254 255 256 255 253 256 259 262 266 268 271 273 274 276 279 281 283 284 286 287 288 288 289 290 290 291 291 292 292 293 294 295 295 296 296 297 298
246 247 251 258 256 255 256 256 258 260 259 258 260 262 264 267 270 272 275 277 280 282 283 285 286 287 288 289 289 289 290 291 291 291 292 293 294 295 296 296 297 298 299 299
248 251 255 256 258 259 259 258 260 262 262 261 261 264 266 269 271 274 277 279 281 283 284 286 287 288 289 289 290 290 291 291 292 292 293 294 295 296 297 297 298 299 300 301
250 253 256 259 259 260 261 262 263 263 263 263 265 266 269 271 273 276 278 280 282 283 285 286 287 288 289 290 290 291 292 292 293 293 294 295 296 297 298 299 299 300 301 303
251 254 257 260 262 262 262 266 263 262 262 264 267 269 271 273 275 277 279 281 282 284 285 286 287 288 290 291 291 292 293 293 294 295 296 296 297 298 299 300 301 302 303 304
250 253 258 263 263 264 266 265 264 264 265 266 268 271 273 275 277 279 281 283 284 285 286 287 289 290 291 291 293 293 294 294 295 296 296 297 298 300 300 301 302 303 304 305
250 255 257 258 262 264 265 266 267 268 269 270 271 274 276 278 279 281 283 285 286 287 288 289 290 291 292 292 294 295 295 295 296 297 298 299 300 301 302 302 303 304 305 305
250 253 256 258 261 264 265 267 269 270 271 272 274 276 278 280 282 284 286 287 289 289 290 290 291 292 292 293 294 295 296 296 297 298 299 300 301 302 303 304 304 305 306 306
250 252 254 258 261 263 265 268 269 270 272 274 276 279 281 282 284 286 288 289 290 290 291 291 292 293 294 294 295 296 297 298 298 299 300 301 302 303 304 305 306 307 307 308
253 253 255 257 260 263 265 267 269 271 273 276 279 281 282 284 286 288 289 290 290 291 292 293 293 294 294 295 296 297 298 299 300 301 301 302 303 304 305 307 308 308 308 308
253 254 256 258 260 262 265 267 270 273 276 278 280 282 284 286 288 289 290 291 292 292 293 294 294 294 295 296 298 299 299 300 301 302 303 303 304 305 306 307 308 308 308 308
254 255 257 258 260 263 267 270 272 275 277 279 281 283 285 288 289 290 291 292 293 293 294 294 295 296 297 298 299 300 301 302 303 303 304 305 306 306 307 308 308 308 308 307
255 256 258 261 263 266 269 272 274 276 278 280 282 285 287 289 290 291 292 293 293 294 294 295 296 297 299 299 300 301 302 303 304 304 305 306 307 307 308 308 309 309 308 307
256 259 262 264 266 268 271 273 275 277 279 282 284 286 288 289 290 291 292 293 294 294 295 296 297 299 300 301 302 302 303 304 305 306 306 307 308 308 308 309 309 309 309 307
259 262 264 266 268 271 273 274 276 279 282 284 285 287 289 290 291 291 292 293 294 295 296 297 299 300 301 302 303 303 304 305 306 307 307 308 308 309 309 309 309 309 308 307
262 265 268 269 271 272 274 276 278 280 283 284 286 288 289 290 290 292 293 294 295 297 298 299 301 301 302 303 304 305 305 306 307 307 308 308 309 309 309 309 309 308 307 306
266 268 269 271 273 275 276 278 280 282 284 285 286 287 288 290 291 293 294 296 297 298 299 301 302 302 303 304 305 306 307 307 308 308 309 309 309 309 309 308 308 307 306 305
267 268 270 272 274 276 278 279 281 282 283 285 286 288 289 291 293 294 296 297 298 299 300 301 302 303 304 305 306 307 307 308 308 309 309 309 309 308 308 307 306 305 304 304
268 270 272 274 276 277 278 280 281 282 284 286 288 290 291 293 295 296 298 299 300 301 302 303 303 304 305 306 306 307 307 308 308 309 309 309 308 308 307 306 305 304 303 302
270 271 273 274 276 277 279 280 282 284 286 288 290 291 293 295 297 298 300 300 301 302 303 304 304 305 306 306 307 307 307 308 308 308 308 308 308 308 307 306 304 303 302 300
271 272 273 274 276 278 280 283 285 287 289 290 292 293 295 297 298 300 301 302 302 303 304 305 305 306 306 307 307 307 307 308 308 308 308 308 307 307 307 305 304 303 301 299
270 271 273 275 277 280 283 285 287 289 291 292 294 296 297 298 300 301 302 303 304 305 305 306 306 306 307 307 307 307 308 308 308 307 307 307 307 306 306 305 304 302 301 299
269 271 274 276 279 282 284 286 289 291 293 295 296 298 299 300 302 303 304 304 305 306 306 306 306 307 307 307 307 308 308 308 307 307 307 306 306 305 304 303 303 301 300 298
271 273 276 279 282 284 286 289 291 293 295 296 298 300 301 303 304 305 305 306 306 306 307 306 306 307 307 307 308 308 307 307 307 307 306 306 305 304 303 303 302 301 299 298
274 277 279 282 284 287 289 292 294 295 297 299 300 302 303 304 305 305 306 306 307 307 306 306 307 307 307 307 308 307 308 307 307 307 306 306 305 303 303 302 302 302 300 299
Height
5692 5694 5696 5698 5700 5701 5702 5704 5706 5708 5710 5712 5712 5712 5713 5714 5714 5714 5714 5714 5713 5712 5710 5708 5706 5703 5700 5697 5694 5690 5686 5682 5678 5674 5669 5665 5660 5655 5651 5646 5641 5635 5630 5625
5685 5687 5688 5690 5692 5694 5696 5697 5698 5700 5703 5705 5703 5703 5704 5705 5705 5705 5705 5704 5703 5702 5700 5698 5695 5692 5689 5686 5682 5678 5674 5670 5666 5661 5657 5652 5647 5642 5637 5632 5627 5621 5615 5610
5679 5681 5680 5682 5686 5688 5689 5690 5692 5692 5696 5696 5695 5695 5696 5696 5696 5696 5695 5694 5693 5691 5689 5687 5684 5681 5678 5674 5670 5666 5662 5658 5653 5649 5644 5639 5634 5629 5624 5618 5613 5607 5601 5594
5671 5674 5672 5680 5680 5681 5682 5684 5685 5686 5687 5688 5688 5688 5688 5687 5687 5686 5685 5684 5682 5680 5678 5675 5672 5669 5666 5662 5658 5654 5650 5645 5641 5636 5631 5626 5621 5615 5610 5604 5598 5592 5586 5579
5664 5665 5666 5671 5673 5674 5674 5676 5678 5678 5679 5679 5678 5678 5679 5679 5677 5676 5675 5674 5672 5669 5667 5664 5661 5657 5654 5650 5646 5642 5637 5633 5628 5623 5618 5613 5608 5602 5596 5590 5584 5577 5570 5563
5656 5657 5659 5666 5667 5666 5667 5668 5671 5669 5669 5669 5669 5670 5671 5669 5668 5666 5665 5663 5661 5658 5655 5652 5649 5646 5642 5638 5634 5629 5625 5620 5615 5610 5605 5599 5594 5588 5581 5575 5568 5562 5554 5546
5649 5649 5652 5657 5659 5659 5660 5662 5662 5660 5660 5660 5661 5661 5661 5659 5658 5656 5654 5652 5649 5647 5644 5641 5637 5634 5630 5626 5621 5617 5612 5607 5602 5596 5591 5585 5579 5573 5566 5560 5553 5546 5539 5530
5640 5641 5647 5650 5649 5650 5651 5651 5651 5651 5652 5652 5651 5651 5650 5649 5647 5645 5643 5641 5638 5635 5632 5629 5625 5622 5618 5613 5609 5604 5599 5594 5589 5583 5577 5570 5564 5558 5550 5543 5536 5528 5520 5512
5634 5637 5639 5639 5640 5641 5641 5642 5642 5642 5642 5642 5642 5641 5640 5638 5636 5634 5632 5629 5627 5623 5620 5617 5613 5609 5605 5600 5596 5591 5586 5580 5575 5569 5562 5556 5549 5542 5534 5526 5518 5510 5501 5493
5624 5627 5629 5630 5631 5631 5632 5632 5632 5633 5633 5633 5632 5631 5630 5628 5626 5623 5621 5618 5615 5611 5608 5604 5601 5596 5592 5587 5583 5578 5573 5567 5561 5555 5548 5541 5533 5525 5517 5508 5499 5490 5480 5470
5616 5619 5620 5621 5622 5622 5623 5623 5623 5623 5623 5623 5622 5621 5619 5617 5615 5612 5609 5606 5603 5600 5596 5592 5588 5584 5579 5574 5569 5564 5559 5553 5546 5540 5533 5526 5518 5509 5499 5490 5477 5467 5457 5446
5609 5611 5612 5613 5613 5613 5614 5614 5614 5614 5613 5612 5611 5610 5608 5605 5603 5600 5597 5594 5591 5588 5584 5580 5575 5571 5565 5560 5556 5550 5545 5538 5531 5524 5517 5509 5501 5493 5482 5470 5459 5445 5431 5419
5600 5601 5602 5603 5603 5604 5604 5604 5604 5604 5603 5602 5600 5598 5596 5594 5591 5589 5586 5582 5579 5575 5571 5567 5562 5557 5552 5547 5542 5536 5529 5523 5516 5508 5499 5491 5481 5472 5464 5456 5442 5426 5412 5398
5590 5591 5592 5593 5594 5594 5594 5594 5594 5593 5592 5591 5589 5587 5585 5583 5580 5577 5574 5570 5567 5563 5558 5554 5549 5544 5538 5533 5527 5521 5514 5506 5498 5490 5481 5471 5461 5450 5439 5429 5422 5412 5396 5379
5581 5582 5583 5584 5585 5585 5585 5584 5584 5583 5582 5580 5578 5576 5574 5571 5568 5565 5561 5558 5554 5550 5545 5540 5535 5530 5524 5518 5512 5505 5497 5489 5480 5471 5461 5450 5439 5428 5417 5405 5395 5385 5376 5363
5572 5573 5574 5574 5575 5575 5575 5574 5573 5572 5571 5569 5567 5565 5562 5559 5556 5552 5549 5545 5541 5537 5532 5527 5522 5516 5510 5503 5496 5489 5480 5471 5461 5451 5441 5430 5418 5406 5395 5383 5372 5362 5352 5342
5563 5564 5564 5565 5565 5565 5564 5563 5562 5561 5559 5558 5555 5553 5550 5547 5544 5540 5537 5533 5528 5524 5518 5513 5508 5502 5494 5486 5479 5471 5462 5452 5441 5430 5419 5407 5396 5385 5373 5362 5351 5342 5333 5324
5554 5555 5555 5555 5555 5554 5553 5552 5551 5550 5548 5546 5544 5541 5538 5535 5532 5529 5525 5520 5516 5510 5504 5498 5493 5486 5478 5469 5460 5451 5442 5432 5421 5409 5398 5386 5375 5363 5352 5342 5333 5324 5317 5310
5545 5545 5545 5545 5544 5544 5543 5542 5540 5539 5537 5535 5532 5530 5527 5524 5520 5517 5512 5508 5502 5497 5491 5484 5476 5468 5460 5450 5441 5431 5421 5410 5400 5388 5377 5365 5354 5344 5334 5324 5316 5308 5302 5296
5536 5536 5536 5535 5535 5534 5533 5531 5530 5528 5526 5524 5521 5518 5515 5512 5508 5504 5500 5494 5487 5482 5476 5468 5460 5451 5441 5431 5421 5411 5400 5389 5378 5367 5356 5345 5335 5326 5317 5309 5301 5294 5288 5283
5526 5526 5526 5526 5525 5524 5522 5521 5519 5517 5515 5512 5510 5507 5503 5500 5495 5491 5486 5480 5473 5465 5458 5449 5440 5431 5421 5411 5401 5390 5379 5368 5357 5347 5336 5327 5318 5309 5301 5294 5287 5281 5276 5271
5517 5517 5516 5516 5515 5513 5512 5510 5509 5506 5504 5501 5498 5495 5491 5487 5482 5476 5470 5463 5457 5448 5440 5431 5421 5410 5400 5390 5380 5369 5358 5347 5337 5327 5318 5309 5301 5294 5287 5280 5274 5268 5264 5259
5507 5507 5506 5506 5505 5503 5502 5500 5498 5495 5492 5489 5486 5482 5478 5473 5467 5461 5456 5447 5438 5430 5421 5411 5400 5389 5379 5369 5358 5348 5338 5328 5318 5309 5301 5293 5286 5280 5273 5267 5262 5257 5252 5248
5497 5497 5496 5495 5494 5493 5491 5489 5486 5484 5480 5477 5472 5468 5463 5458 5452 5444 5436 5429 5419 5410 5401 5390 5379 5368 5358 5348 5338 5328 5318 5309 5301 5293 5286 5279 5272 5266 5261 5255 5250 5246 5242 5238
5487 5487 5486 5485 5483 5482 5480 5477 5474 5471 5468 5463 5458 5452 5446 5440 5434 5427 5418 5409 5399 5389 5380 5369 5358 5348 5337 5328 5318 5310 5301 5293 5286 5279 5272 5266 5260 5254 5249 5244 5240 5236 5232 5228
5477 5476 5475 5474 5472 5470 5468 5465 5462 5458 5454 5449 5443 5436 5429 5422 5414 5406 5398 5388 5378 5368 5358 5349 5338 5328 5319 5310 5302 5294 5286 5278 5271 5265 5258 5252 5247 5242 5238 5234 5230 5226 5222 5219
5467 5466 5465 5463 5461 5458 5455 5452 5448 5444 5439 5434 5428 5420 5412 5404 5396 5386 5377 5368 5358 5348 5339 5329 5320 5310 5302 5294 5286 5279 5271 5265 5258 5252 5246 5241 5236 5232 5228 5224 5221 5217 5214 5211